Weather History for PAPG - November, 2012

Change the Weather History Date:

Saturday, November 3, 2012

  Actual Average (WUND) Record (WUND)
Temperature  
Mean Temperature 40 °F -  
Max Temperature 44 °F - - (-1)
Min Temperature 35 °F - - (-1)
Degree Days  
Heating Degree Days 26    
Moisture  
Dew Point 36 °F    
Average Humidity 81    
Maximum Humidity 93    
Minimum Humidity 66    
Precipitation  
Precipitation 0.00 in - - ()
Sea Level Pressure  
Sea Level Pressure 29.63 in    
Wind  
Wind Speed 5 mph (SE)    
Max Wind Speed 14 mph    
Max Gust Speed 25 mph    
Visibility 9 miles    
Events      
Averages and records for this station are not official NWS values.
T = Trace of Precipitation, MM = Missing Value Source: NWS Daily Summary

Daily Weather History Graph

Daily Weather History Graph

Search for Another Location

Airport or City:

Trip Planner

Search our weather history database for the weather conditions in past years. The results will help you decide how hot, cold, wet, or windy it might be!

Date:

Astronomy

Nov. 03, 2012 Rise Set
Actual Time 8:07 AM AKDT 5:02 PM AKDT
Civil Twilight 7:26 AM AKDT 5:43 PM AKDT
Nautical Twilight 6:41 AM AKDT 6:28 PM AKDT
Astronomical Twilight 5:56 AM AKDT 7:12 PM AKDT
Moon 8:30 PM AKDT (11/3) 12:38 PM AKDT (11/3)
Length of Visible Light 10h 17m
Length of Day
8h 54m
Waning Gibbous, 79% of the Moon is Illuminated
Nov 3
Waning Gibbous
Nov 6
Last Quarter
Nov 13
New
Nov 20
First Quarter
Nov 28
Full

Hourly Weather History & Observations

Time (AKDT) Temp. Windchill Dew Point Humidity Pressure Visibility Wind Dir Wind Speed Gust Speed Precip Events Conditions
12:16 AM 35.6 °F - 33.8 °F 93% 29.62 in 9.0 mi Calm Calm - N/A   Overcast
12:36 AM 35.6 °F - 32.0 °F 87% 29.62 in 6.0 mi Calm Calm - N/A   Mostly Cloudy
12:56 AM 35.6 °F 30.7 °F 33.8 °F 93% 29.62 in 10.0 mi WSW 5.8 mph - N/A   Overcast
2:36 AM - - - N/A% - - North - - N/A   Unknown
2:56 AM 35.6 °F - 33.8 °F 93% 29.61 in 10.0 mi Calm Calm - N/A   Unknown
3:16 AM 35.6 °F 31.7 °F 33.8 °F 93% 29.62 in 10.0 mi WSW 4.6 mph - N/A   Overcast
3:36 AM 35.6 °F - 33.8 °F 93% 29.61 in 10.0 mi Calm Calm - N/A   Overcast
3:56 AM 35.6 °F 30.7 °F 33.8 °F 93% 29.60 in 10.0 mi WSW 5.8 mph - N/A   Scattered Clouds
4:16 AM 37.4 °F 32.8 °F 35.6 °F 93% 29.60 in 10.0 mi NE 5.8 mph - N/A   Scattered Clouds
4:36 AM 37.4 °F - 33.8 °F 87% 29.59 in 10.0 mi Calm Calm - N/A   Mostly Cloudy
4:56 AM 35.6 °F 32.8 °F 33.8 °F 93% 29.59 in 10.0 mi SW 3.5 mph - N/A   Mostly Cloudy
5:16 AM 37.4 °F 33.8 °F 33.8 °F 87% 29.58 in 10.0 mi SW 4.6 mph - N/A   Partly Cloudy
5:36 AM 39.2 °F 37.0 °F 35.6 °F 87% 29.58 in 10.0 mi West 3.5 mph - N/A   Scattered Clouds
5:56 AM 41.0 °F 37.1 °F 35.6 °F 81% 29.57 in 10.0 mi ESE 5.8 mph - N/A   Scattered Clouds
6:16 AM 42.8 °F 37.5 °F 35.6 °F 76% 29.57 in 10.0 mi SE 9.2 mph 16.1 mph N/A   Overcast
6:36 AM 42.8 °F 38.0 °F 35.6 °F 76% 29.57 in 10.0 mi ESE 8.1 mph - N/A   Overcast
6:56 AM 42.8 °F 38.6 °F 35.6 °F 76% 29.57 in 10.0 mi SE 6.9 mph - N/A   Overcast
7:16 AM 42.8 °F 38.0 °F 35.6 °F 76% 29.56 in 10.0 mi ESE 8.1 mph - N/A   Overcast
7:36 AM 44.6 °F 40.2 °F 35.6 °F 71% 29.56 in 10.0 mi East 8.1 mph - N/A   Overcast
7:56 AM 44.6 °F 40.2 °F 33.8 °F 66% 29.55 in 10.0 mi East 8.1 mph - N/A   Overcast
8:16 AM 44.6 °F 39.2 °F 35.6 °F 71% 29.56 in 10.0 mi ESE 10.4 mph - N/A   Overcast
8:36 AM 42.8 °F 37.5 °F 35.6 °F 76% 29.56 in 10.0 mi SE 9.2 mph - N/A   Overcast
8:56 AM 42.8 °F 36.6 °F 35.6 °F 76% 29.57 in 5.0 mi SSE 11.5 mph 25.3 mph N/A   Overcast
9:16 AM 42.8 °F 41.1 °F 35.6 °F 76% 29.58 in 5.0 mi SSE 3.5 mph - N/A   Overcast
9:36 AM 42.8 °F - 37.4 °F 81% 29.59 in 5.0 mi Calm Calm - N/A   Overcast
9:56 AM 42.8 °F 41.1 °F 37.4 °F 81% 29.59 in 7.0 mi NE 3.5 mph - N/A   Overcast
10:16 AM 42.8 °F 38.6 °F 37.4 °F 81% 29.59 in 7.0 mi ESE 6.9 mph - N/A   Overcast
10:36 AM 41.0 °F 35.8 °F 35.6 °F 81% 29.59 in 7.0 mi ESE 8.1 mph 17.3 mph N/A   Overcast
10:56 AM 41.0 °F 35.8 °F 35.6 °F 81% 29.60 in 7.0 mi ESE 8.1 mph 16.1 mph N/A   Overcast
11:16 AM 42.8 °F 38.6 °F 37.4 °F 81% 29.60 in 7.0 mi SE 6.9 mph - N/A   Overcast
11:36 AM 42.8 °F 40.1 °F 37.4 °F 81% 29.61 in 7.0 mi SE 4.6 mph - N/A   Overcast
11:56 AM 42.8 °F 38.0 °F 37.4 °F 81% 29.61 in 10.0 mi SSE 8.1 mph - N/A   Mostly Cloudy
12:16 PM 42.8 °F 38.0 °F 37.4 °F 81% 29.61 in 10.0 mi South 8.1 mph - N/A   Mostly Cloudy
12:36 PM 42.8 °F 36.2 °F 37.4 °F 81% 29.61 in 10.0 mi ESE 12.7 mph 18.4 mph N/A   Mostly Cloudy
12:56 PM 42.8 °F 37.5 °F 37.4 °F 81% 29.61 in 5.0 mi ESE 9.2 mph 18.4 mph N/A   Overcast
1:16 PM 42.8 °F 40.1 °F 37.4 °F 81% 29.61 in 5.0 mi South 4.6 mph - N/A   Overcast
1:56 PM 44.6 °F 39.7 °F 37.4 °F 76% 29.61 in 10.0 mi South 9.2 mph - N/A   Mostly Cloudy
2:16 PM 44.6 °F 38.8 °F 37.4 °F 76% 29.62 in 10.0 mi SE 11.5 mph 18.4 mph N/A   Mostly Cloudy
2:36 PM 42.8 °F - 35.6 °F 76% 29.64 in 10.0 mi Calm Calm - N/A   Mostly Cloudy
2:56 PM 42.8 °F 41.1 °F 37.4 °F 81% 29.64 in 10.0 mi SE 3.5 mph - N/A   Mostly Cloudy
3:16 PM 42.8 °F 39.3 °F 37.4 °F 81% 29.64 in 10.0 mi ESE 5.8 mph - N/A   Mostly Cloudy
3:36 PM 42.8 °F 37.5 °F 35.6 °F 76% 29.64 in 10.0 mi East 9.2 mph 17.3 mph N/A   Mostly Cloudy
3:56 PM 42.8 °F 37.0 °F 35.6 °F 76% 29.65 in 10.0 mi SE 10.4 mph 18.4 mph N/A   Mostly Cloudy
4:16 PM 42.8 °F 39.3 °F 35.6 °F 76% 29.65 in 10.0 mi ESE 5.8 mph - N/A   Mostly Cloudy
4:36 PM 42.8 °F 38.0 °F 35.6 °F 76% 29.65 in 10.0 mi SE 8.1 mph - N/A   Mostly Cloudy
4:56 PM 42.8 °F 40.1 °F 35.6 °F 76% 29.66 in 10.0 mi ESE 4.6 mph - N/A   Overcast
5:16 PM 42.8 °F 38.0 °F 35.6 °F 76% 29.66 in 10.0 mi ESE 8.1 mph - N/A   Overcast
5:36 PM 44.6 °F 38.1 °F 37.4 °F 76% 29.66 in 10.0 mi ESE 13.8 mph 19.6 mph N/A   Overcast
5:56 PM 44.6 °F 38.8 °F 37.4 °F 76% 29.66 in 10.0 mi ESE 11.5 mph 18.4 mph N/A   Overcast
6:16 PM 44.6 °F 40.7 °F 35.6 °F 71% 29.67 in 10.0 mi East 6.9 mph 21.9 mph N/A   Mostly Cloudy
6:36 PM 42.8 °F 36.6 °F 37.4 °F 81% 29.67 in 10.0 mi ESE 11.5 mph 23.0 mph N/A   Mostly Cloudy
6:56 PM 44.6 °F 39.2 °F 35.6 °F 71% 29.67 in 10.0 mi East 10.4 mph 20.7 mph N/A   Overcast
7:16 PM 44.6 °F 40.2 °F 35.6 °F 71% 29.68 in 10.0 mi ESE 8.1 mph 17.3 mph N/A   Overcast
7:36 PM 42.8 °F 38.0 °F 37.4 °F 81% 29.68 in 10.0 mi ESE 8.1 mph 18.4 mph N/A   Overcast
7:56 PM 42.8 °F 38.6 °F 37.4 °F 81% 29.68 in 10.0 mi ESE 6.9 mph 16.1 mph N/A   Overcast
8:16 PM 44.6 °F 43.1 °F 37.4 °F 76% 29.69 in 10.0 mi ESE 3.5 mph - N/A   Overcast
8:36 PM 42.8 °F - 37.4 °F 81% 29.68 in 10.0 mi Calm Calm - N/A   Overcast
8:56 PM 42.8 °F 41.1 °F 37.4 °F 81% 29.69 in 10.0 mi East 3.5 mph - N/A   Overcast
9:16 PM 42.8 °F 40.1 °F 37.4 °F 81% 29.69 in 10.0 mi ESE 4.6 mph - N/A   Overcast
9:36 PM 42.8 °F 39.3 °F 37.4 °F 81% 29.70 in 10.0 mi East 5.8 mph - N/A   Overcast
9:56 PM 42.8 °F 41.1 °F 37.4 °F 81% 29.70 in 10.0 mi ESE 3.5 mph - N/A   Overcast
10:16 PM 42.8 °F 39.3 °F 37.4 °F 81% 29.71 in 7.0 mi SE 5.8 mph - N/A   Overcast
10:36 PM 42.8 °F 40.1 °F 37.4 °F 81% 29.71 in 8.0 mi SE 4.6 mph - N/A   Overcast
10:56 PM 42.8 °F 41.1 °F 39.2 °F 87% 29.71 in 6.0 mi East 3.5 mph - N/A   Overcast
11:16 PM 42.8 °F - 37.4 °F 81% 29.71 in 7.0 mi Calm Calm - N/A   Overcast
11:36 PM 41.0 °F 39.0 °F 37.4 °F 87% 29.71 in 10.0 mi South 3.5 mph - N/A   Overcast
11:56 PM 41.0 °F - 37.4 °F 87% 29.71 in 10.0 mi Calm Calm - N/A   Overcast